| time (UTC) | temp F | wind direction | speed MPH | gust MPH | rain 1hr in | rain 24hr in | rain mn in | humidity % | barometer mb |
| 20260903084608 | 49 | 94 | 0.0 | 0.0 | 0.00 | 0.20 | 0.00 | 95 | 1012.4 |
| 20260903081531 | 49 | 247 | 0.0 | 5.0 | 0.00 | 0.20 | 0.00 | 95 | 1012.3 |
| 20260903080035 | 49 | 245 | 0.0 | 4.0 | 0.00 | 0.20 | 0.00 | 95 | 1012.2 |
| 20260903074532 | 50 | 171 | 0.0 | 9.0 | 0.00 | 0.20 | 0.00 | 95 | 1011.9 |
| 20260903073035 | 51 | 112 | 0.0 | 0.0 | 0.00 | 0.20 | 0.00 | 95 | 1011.9 |
| 20260903071530 | 52 | 112 | 0.0 | 0.0 | 0.00 | 0.20 | 0.00 | 95 | 1011.9 |
| 20260903070106 | 52 | 112 | 0.0 | 0.0 | 0.00 | 0.20 | 0.00 | 95 | 1011.8 |
| 20260903064536 | 52 | 112 | 0.0 | 0.0 | 0.00 | 0.20 | 0.20 | 95 | 1011.8 |
| 20260903063152 | 52 | 112 | 0.0 | 0.0 | 0.00 | 0.20 | 0.20 | 94 | 1011.8 |
| 20260903061532 | 53 | 112 | 0.0 | 0.0 | 0.00 | 0.20 | 0.20 | 94 | 1011.8 |
| 20260903060031 | 54 | 128 | 0.0 | 0.0 | 0.00 | 0.20 | 0.20 | 94 | 1011.7 |
| 20260903054536 | 54 | 113 | 0.0 | 0.0 | 0.00 | 0.20 | 0.20 | 94 | 1011.7 |
| 20260903053108 | 54 | 88 | 0.0 | 0.0 | 0.00 | 0.20 | 0.20 | 94 | 1011.7 |
| 20260903051533 | 55 | 72 | 0.0 | 0.0 | 0.01 | 0.21 | 0.20 | 94 | 1011.6 |
| 20260903044536 | 55 | 22 | 0.0 | 0.0 | 0.01 | 0.22 | 0.20 | 93 | 1011.4 |
| 20260903043032 | 55 | 22 | 0.0 | 0.0 | 0.01 | 0.22 | 0.19 | 93 | 1011.4 |
| 20260903041535 | 55 | 22 | 0.0 | 0.0 | 0.00 | 0.21 | 0.19 | 93 | 1011.3 |
| 20260903040034 | 56 | 36 | 0.0 | 0.0 | 0.01 | 0.21 | 0.19 | 92 | 1011.1 |
| 20260903034542 | 56 | 25 | 0.0 | 1.0 | 0.04 | 0.21 | 0.19 | 92 | 1010.8 |
| 20260903033033 | 56 | 225 | 0.0 | 2.0 | 0.15 | 0.21 | 0.19 | 91 | 1010.5 |
| 20260903031531 | 56 | 281 | 0.0 | 3.0 | 0.15 | 0.21 | 0.18 | 90 | 1010.3 |
| 20260903024536 | 58 | 248 | 1.0 | 8.0 | 0.11 | 0.17 | 0.04 | 91 | 1010.1 |
| 20260903023034 | 58 | 312 | 0.0 | 2.0 | 0.00 | 0.06 | 0.04 | 90 | 1009.6 |
| 20260903021533 | 59 | 315 | 0.0 | 0.0 | 0.00 | 0.06 | 0.04 | 90 | 1009.5 |
| 20260903020034 | 59 | 359 | 0.0 | 6.0 | 0.00 | 0.06 | 0.04 | 90 | 1009.4 |
| 20260903014535 | 59 | 13 | 0.0 | 5.0 | 0.00 | 0.06 | 0.04 | 89 | 1009.5 |
| 20260903013036 | 59 | 307 | 0.0 | 2.0 | 0.00 | 0.06 | 0.04 | 89 | 1009.6 |
| 20260903011536 | 60 | 292 | 0.0 | 0.0 | 0.00 | 0.06 | 0.04 | 88 | 1009.6 |
| 20260903010043 | 60 | 292 | 0.0 | 0.0 | 0.00 | 0.06 | 0.04 | 88 | 1009.7 |
| 20260903010037 | 60 | 341 | 0.0 | 1.0 | 0.00 | 0.06 | 0.04 | 87 | 1009.7 |
| 20260903003037 | 60 | 22 | 0.0 | 2.0 | 0.00 | 0.06 | 0.04 | 86 | 1009.6 |
| 20260903001534 | 60 | 21 | 0.0 | 3.0 | 0.00 | 0.06 | 0.04 | 85 | 1009.7 |
| 20260903000035 | 60 | 28 | 0.0 | 6.0 | 0.01 | 0.06 | 0.04 | 85 | 1009.7 |
| 20260902234535 | 60 | 35 | 0.0 | 4.0 | 0.01 | 0.06 | 0.04 | 85 | 1009.9 |
| 20260902233036 | 60 | 23 | 1.0 | 7.0 | 0.01 | 0.06 | 0.04 | 86 | 1009.9 |
| 20260902231534 | 60 | 360 | 0.0 | 7.0 | 0.01 | 0.06 | 0.03 | 85 | 1009.9 |
| 20260902230032 | 60 | 9 | 0.0 | 1.0 | 0.00 | 0.05 | 0.03 | 84 | 1009.8 |
| 20260902223035 | 60 | 21 | 2.0 | 6.0 | 0.00 | 0.05 | 0.03 | 84 | 1009.7 |
| 20260902220105 | 60 | 35 | 0.0 | 4.0 | 0.00 | 0.05 | 0.03 | 84 | 1009.6 |
| 20260902214647 | 60 | 48 | 0.0 | 5.0 | 0.01 | 0.05 | 0.03 | 84 | 1009.7 |
| 20260902213106 | 60 | 51 | 0.0 | 5.0 | 0.01 | 0.05 | 0.03 | 84 | 1009.9 |
| 20260902211536 | 61 | 25 | 0.0 | 3.0 | 0.01 | 0.05 | 0.02 | 83 | 1010.0 |
| 20260902204534 | 61 | 12 | 0.0 | 2.0 | 0.01 | 0.04 | 0.02 | 82 | 1010.0 |
| 20260902203035 | 61 | 57 | 0.0 | 0.0 | 0.02 | 0.04 | 0.02 | 81 | 1009.9 |
| 20260902201534 | 61 | 229 | 0.0 | 0.0 | 0.02 | 0.04 | 0.02 | 80 | 1009.8 |
| 20260902200029 | 61 | 232 | 0.0 | 2.0 | 0.02 | 0.04 | 0.01 | 77 | 1010.0 |
| 20260902194608 | 61 | 250 | 0.0 | 4.0 | 0.01 | 0.03 | 0.00 | 72 | 1009.8 |
| 20260902193037 | 65 | 225 | 1.0 | 8.0 | 0.00 | 0.02 | 0.00 | 63 | 1009.6 |
| 20260902191536 | 67 | 280 | 2.0 | 9.0 | 0.00 | 0.02 | 0.00 | 59 | 1009.1 |
| 20260902190106 | 68 | 353 | 2.0 | 7.0 | 0.00 | 0.02 | 0.00 | 57 | 1008.8 |
| 20260902184536 | 68 | 326 | 1.0 | 4.0 | 0.00 | 0.02 | 0.00 | 59 | 1009.0 |
| 20260902183107 | 68 | 15 | 0.0 | 4.0 | 0.00 | 0.02 | 0.00 | 57 | 1009.2 |
| 20260902181532 | 68 | 37 | 1.0 | 7.0 | 0.00 | 0.02 | 0.00 | 57 | 1009.4 |
| 20260902180107 | 69 | 67 | 1.0 | 7.0 | 0.00 | 0.02 | 0.00 | 59 | 1009.4 |
| 20260902173032 | 65 | 91 | 0.0 | 6.0 | 0.00 | 0.02 | 0.00 | 67 | 1010.0 |
| 20260902171604 | 63 | 121 | 0.0 | 2.0 | 0.00 | 0.02 | 0.00 | 68 | 1010.2 |
| 20260902170107 | 62 | 61 | 0.0 | 4.0 | 0.00 | 0.02 | 0.00 | 69 | 1010.5 |
| 20260902164529 | 62 | 65 | 0.0 | 4.0 | 0.00 | 0.02 | 0.00 | 71 | 1010.6 |
| 20260902163030 | 62 | 110 | 0.0 | 4.0 | 0.00 | 0.02 | 0.00 | 73 | 1010.7 |
| 20260902161536 | 61 | 96 | 0.0 | 0.0 | 0.00 | 0.02 | 0.00 | 75 | 1010.8 |
| 20260902160035 | 60 | 48 | 0.0 | 4.0 | 0.00 | 0.02 | 0.00 | 76 | 1011.0 |
| 20260902154533 | 59 | 24 | 0.0 | 4.0 | 0.00 | 0.02 | 0.00 | 79 | 1011.2 |
| 20260902153045 | 58 | 292 | 0.0 | 0.0 | 0.00 | 0.02 | 0.00 | 81 | 1011.4 |
| 20260902151536 | 58 | 261 | 0.0 | 0.0 | 0.00 | 0.02 | 0.00 | 84 | 1011.5 |
| 20260902150033 | 56 | 201 | 0.0 | 3.0 | 0.00 | 0.02 | 0.00 | 87 | 1011.6 |
| 20260902144531 | 54 | 189 | 0.0 | 0.0 | 0.00 | 0.02 | 0.00 | 89 | 1011.6 |
| 20260902141533 | 51 | 163 | 0.0 | 0.0 | 0.00 | 0.02 | 0.00 | 90 | 1011.7 |
| 20260902140036 | 50 | 112 | 0.0 | 0.0 | 0.00 | 0.02 | 0.00 | 90 | 1011.8 |
| 20260902134536 | 49 | 132 | 0.0 | 0.0 | 0.00 | 0.02 | 0.00 | 89 | 1011.8 |
| 20260902133037 | 50 | 135 | 0.0 | 0.0 | 0.00 | 0.02 | 0.00 | 88 | 1011.9 |
| 20260902131538 | 50 | 135 | 0.0 | 0.0 | 0.00 | 0.02 | 0.00 | 87 | 1012.1 |
| 20260902130037 | 50 | 112 | 0.0 | 0.0 | 0.00 | 0.02 | 0.00 | 86 | 1012.2 |
| 20260902124538 | 50 | 112 | 0.0 | 0.0 | 0.00 | 0.02 | 0.00 | 85 | 1012.0 |
| 20260902123038 | 51 | 121 | 0.0 | 0.0 | 0.00 | 0.02 | 0.00 | 84 | 1012.1 |
| 20260902121533 | 52 | 135 | 0.0 | 0.0 | 0.00 | 0.02 | 0.00 | 81 | 1012.1 |
| 20260902120031 | 54 | 139 | 0.0 | 0.0 | 0.00 | 0.02 | 0.00 | 79 | 1012.2 |
| 20260902114532 | 55 | 216 | 0.0 | 0.0 | 0.00 | 0.02 | 0.00 | 78 | 1012.0 |
| 20260902113145 | 56 | 206 | 0.0 | 4.0 | 0.00 | 0.02 | 0.00 | 76 | 1012.1 |
| 20260902111536 | 58 | 252 | 0.0 | 3.0 | 0.00 | 0.02 | 0.00 | 74 | 1012.0 |
| 20260902110142 | 58 | 254 | 2.0 | 14.0 | 0.00 | 0.02 | 0.00 | 74 | 1012.0 |
| 20260902103035 | 57 | 251 | 2.0 | 8.0 | 0.00 | 0.02 | 0.00 | 75 | 1012.0 |
| 20260902101536 | 58 | 253 | 1.0 | 10.0 | 0.00 | 0.02 | 0.00 | 74 | 1012.0 |
| 20260902100037 | 58 | 260 | 3.0 | 12.0 | 0.00 | 0.02 | 0.00 | 74 | 1012.1 |
| 20260902094535 | 58 | 277 | 4.0 | 11.0 | 0.00 | 0.02 | 0.00 | 74 | 1012.1 |
| 20260902093034 | 58 | 291 | 1.0 | 7.0 | 0.00 | 0.02 | 0.00 | 74 | 1012.1 |
| 20260902091536 | 59 | 290 | 2.0 | 9.0 | 0.00 | 0.02 | 0.00 | 74 | 1012.2 |